Temperature
20 19 19 19 18 18 20 20 20 21 20 20 20 20 19 18 18 18 18 18 18 18 18 18 18 18 18 18 18 18 18 18 18 18 18 18 18 18 19 19 19 19 19 19 19 19 19 19 19
20 20 19 19 18 19 20 20 20 21 21 20 20 19 19 18 18 18 18 18 18 18 18 18 18 18 18 18 18 18 18 18 18 18 18 18 18 18 18 18 18 18 18 19 19 19 19 19 18
20 20 19 17 18 19 20 21 20 21 21 20 19 19 19 18 19 19 18 18 18 18 18 18 18 18 18 17 17 17 17 17 17 17 17 18 18 18 18 18 18 18 18 18 18 18 18 18 18
20 20 19 18 20 20 20 20 20 21 21 20 19 18 19 19 19 19 19 18 18 18 18 18 18 18 17 17 17 17 17 17 17 17 17 17 17 17 17 18 18 18 18 18 18 18 18 18 18
20 20 18 19 20 20 20 20 21 21 20 20 19 18 18 19 19 19 19 18 18 18 18 18 18 17 17 17 17 17 17 17 17 17 17 17 17 17 17 17 17 18 18 18 18 18 18 18 18
20 18 19 19 20 21 21 21 21 20 20 20 19 18 19 19 19 19 19 18 18 18 18 18 18 17 17 17 17 17 16 16 16 16 16 16 17 17 17 17 17 17 17 17 18 18 18 18 18
20 18 19 20 20 20 21 21 21 20 20 20 20 18 19 19 19 19 19 18 18 18 18 18 18 17 17 17 17 16 16 16 16 16 16 16 16 16 16 17 17 17 17 17 17 17 17 18 18
21 18 20 19 20 20 21 21 21 21 20 20 20 19 19 20 19 19 19 18 18 18 18 18 17 17 17 17 16 16 16 16 16 16 16 16 16 16 16 16 16 17 17 17 17 17 17 17 17
20 18 19 20 20 20 21 21 21 21 21 20 20 21 20 20 19 19 19 18 18 18 18 18 17 17 17 17 16 16 16 16 15 15 15 15 15 15 16 16 16 16 16 17 17 17 17 17 17
20 18 20 20 20 20 21 21 21 21 20 20 20 20 20 20 20 19 19 19 18 18 18 17 17 17 16 16 16 16 15 15 15 15 15 15 15 15 15 15 15 16 16 16 16 16 17 17 17
20 20 20 21 21 22 21 21 21 20 19 20 21 21 20 20 20 19 19 19 19 18 18 17 17 17 16 16 16 15 15 15 15 15 15 14 15 15 15 15 15 15 15 16 16 16 16 16 17
20 20 21 21 22 22 22 21 21 21 22 23 22 22 21 20 20 20 19 19 19 18 18 17 17 16 16 16 15 15 15 14 14 14 14 14 14 14 14 14 15 15 15 15 15 16 16 16 16
20 20 21 22 22 22 22 21 21 22 23 22 22 21 21 21 20 20 19 19 18 18 17 17 17 16 16 15 15 15 14 14 14 14 14 14 14 14 14 14 14 14 14 15 15 15 15 16 16
21 21 21 21 21 21 21 21 21 22 23 22 22 21 21 21 20 20 19 19 18 18 17 17 16 16 16 15 15 14 14 14 14 14 14 14 14 14 14 14 14 14 14 14 15 15 15 15 16
21 20 21 21 21 21 21 20 20 23 22 22 21 21 21 20 20 20 19 19 18 18 17 17 16 16 15 15 15 14 14 14 14 14 13 13 13 13 13 13 13 14 14 14 14 15 15 15 15
20 20 20 21 20 20 21 20 21 22 22 21 21 21 21 20 20 20 19 19 18 18 17 17 16 15 15 15 14 14 14 14 13 13 13 13 13 13 13 13 13 13 13 14 14 14 15 15 15
19 19 20 20 20 20 20 20 20 21 21 20 21 21 20 20 20 19 19 19 18 18 17 16 16 15 15 15 14 14 14 13 13 13 13 13 13 13 13 13 13 13 13 13 14 14 14 15 15
19 19 20 20 20 20 19 19 20 20 20 20 20 20 20 20 20 19 19 18 18 17 17 16 16 15 15 14 14 14 13 13 13 13 13 13 13 13 13 13 13 13 13 13 13 14 14 14 14
20 20 20 20 21 20 19 19 19 19 19 19 19 19 20 20 20 19 19 18 18 17 16 16 15 15 15 14 14 14 14 13 13 13 13 13 13 12 12 12 13 13 13 13 13 13 13 14 14
20 20 20 20 21 20 19 19 19 18 18 19 19 19 20 20 19 19 18 18 17 17 16 16 15 15 14 14 14 13 13 13 13 13 13 12 12 12 12 12 12 12 13 13 13 13 13 13 13
20 20 20 20 20 20 20 19 19 19 19 19 19 20 20 20 19 19 18 18 17 17 16 16 15 15 14 14 14 13 13 13 13 13 13 12 12 12 12 12 12 12 12 12 12 13 13 13 13
20 20 20 20 19 18 20 18 19 18 18 18 18 19 19 19 19 19 18 18 17 17 16 16 15 15 14 14 14 13 13 13 13 12 12 12 12 12 12 12 12 12 12 12 12 12 12 13 13
20 20 20 20 19 18 18 18 17 18 19 18 17 18 19 20 19 19 19 18 17 17 16 16 15 15 14 14 14 13 13 13 13 12 12 12 12 12 12 12 12 12 12 12 12 12 12 12 13
20 19 18 16 17 18 19 18 18 17 18 19 18 19 20 20 19 19 18 18 17 17 16 15 15 15 14 14 14 13 13 13 13 13 12 12 12 12 12 12 12 12 12 12 12 12 12 12 12
19 18 18 18 17 18 18 18 17 18 18 18 18 19 20 20 19 19 18 18 17 17 16 16 15 15 14 14 14 13 13 13 13 12 12 12 12 12 12 12 12 12 12 12 12 12 12 12 12
19 18 18 19 18 17 17 17 18 18 19 19 20 20 20 20 20 19 19 18 17 17 16 16 15 15 14 14 14 13 13 13 13 12 12 12 12 12 12 12 12 12 12 12 12 12 12 12 12
19 18 18 17 17 17 17 18 18 20 19 19 19 19 20 20 20 19 19 18 17 17 16 16 15 15 14 14 14 13 13 13 13 12 12 12 12 12 12 12 12 12 12 12 12 12 12 12 12
19 16 15 16 17 18 18 18 18 19 19 18 18 19 20 20 20 19 19 18 18 17 16 16 15 15 15 14 14 13 13 13 13 13 12 12 12 12 12 12 12 12 12 12 12 12 12 12 12
19 18 15 14 15 16 17 18 18 18 19 18 18 20 21 21 20 20 19 18 18 17 17 16 16 15 15 14 14 14 13 13 13 13 13 12 12 12 12 12 12 12 12 12 12 12 11 12 12
20 18 16 18 17 15 16 17 18 17 17 18 19 21 21 21 20 20 19 18 18 17 17 16 16 15 15 14 14 14 13 13 13 13 13 13 12 12 12 12 12 12 12 11 11 11 12 12 12
Wind_Speed
4 5 3 3 4 4 1 2 1 1 2 2 3 6 6 4 2 1 1 1 2 3 4 4 3 3 3 2 2 2 2 2 2 2 2 2 3 3 3 3 3 3 3 2 2 2 2 2 2
5 3 3 4 4 2 3 3 1 1 4 4 4 4 5 3 2 2 0 1 2 4 3 3 3 3 2 2 2 1 2 2 2 3 3 4 4 4 4 4 4 4 4 3 3 3 2 2 2
5 3 3 3 2 2 2 2 1 2 4 3 4 4 3 2 2 2 2 2 2 3 2 2 2 2 1 1 1 2 3 3 3 3 4 4 5 5 6 6 6 6 6 5 5 4 4 3 2
3 3 3 3 0 3 3 2 2 4 3 4 4 4 2 1 2 3 3 4 3 2 2 2 2 1 1 0 1 2 3 4 4 4 4 5 5 6 6 7 7 7 7 6 6 5 5 4 4
3 3 3 1 2 2 2 2 2 2 2 2 4 4 1 2 2 5 4 4 4 2 1 2 2 2 1 1 1 2 3 4 5 5 5 5 5 6 7 8 8 7 7 7 6 6 6 5 5
3 3 2 1 3 2 1 1 2 3 3 3 4 4 1 0 3 4 4 3 3 3 2 2 2 2 2 2 2 3 3 4 5 6 6 6 6 6 6 7 8 8 7 7 7 7 7 7 6
3 3 2 2 2 2 1 1 3 3 3 4 5 4 1 2 4 4 3 2 2 1 1 1 2 2 3 3 3 3 4 4 5 5 6 6 6 6 7 7 7 7 7 7 7 7 8 8 7
3 3 1 1 2 3 1 2 2 4 3 3 6 6 5 5 5 4 3 2 0 0 0 1 2 3 3 3 4 4 4 4 5 5 5 5 6 7 7 7 7 7 6 6 7 7 8 8 8
3 3 2 4 5 4 2 2 1 2 4 2 3 5 5 6 7 5 2 1 0 1 1 1 2 2 3 3 3 3 4 5 6 6 6 6 5 6 6 7 7 7 7 6 6 6 7 8 8
4 3 5 4 5 4 3 4 4 3 2 1 1 1 4 7 8 7 6 5 3 3 2 1 1 1 2 2 3 4 4 5 5 5 5 5 5 5 5 6 7 7 7 6 5 5 6 6 5
4 5 4 3 4 4 3 4 4 7 5 8 8 8 8 7 7 8 7 6 5 4 2 1 1 1 1 2 2 3 4 4 5 5 5 5 4 4 4 4 5 6 6 5 5 4 3 3 3
4 5 4 3 3 3 4 4 4 7 9 8 10 11 10 10 10 9 8 6 4 3 3 1 1 1 1 1 2 2 2 2 3 4 4 3 2 2 2 2 3 3 3 3 3 2 3 3 4
4 3 3 4 2 3 3 4 4 7 7 4 7 9 10 10 9 7 6 5 4 4 3 2 2 1 1 1 1 1 2 2 3 4 4 2 1 2 2 2 2 3 3 2 2 2 2 3 3
3 2 2 2 1 1 3 3 3 8 4 6 9 10 9 9 8 6 6 6 5 4 3 2 2 1 1 0 1 2 2 3 3 3 4 3 2 2 2 2 3 3 3 3 2 3 3 3 3
1 2 4 1 2 2 2 4 8 7 6 7 8 8 8 8 7 8 7 6 6 4 3 2 2 1 0 1 2 2 2 2 2 3 4 4 3 2 2 2 3 3 4 3 2 2 2 2 2
3 3 3 4 3 3 5 8 9 4 8 8 8 7 7 6 6 6 6 5 5 4 3 2 1 1 1 2 2 2 3 2 2 3 4 5 4 3 2 2 3 3 3 2 2 2 2 2 2
3 1 4 5 3 3 5 8 6 4 8 9 8 7 6 5 4 5 6 6 6 5 3 2 1 0 2 2 2 2 2 2 3 3 4 5 5 3 2 2 3 3 2 2 2 1 1 2 2
5 4 4 5 3 5 6 10 9 3 7 9 7 6 5 6 6 5 6 5 5 4 3 2 1 1 2 2 2 3 3 3 3 3 4 5 4 4 2 2 3 2 2 2 2 2 2 2 2
6 5 6 6 3 6 8 10 10 4 5 7 7 7 6 6 3 4 5 5 4 3 2 2 1 2 1 1 2 2 3 3 3 3 4 5 5 4 2 2 3 2 2 2 2 1 2 2 1
4 3 6 5 1 4 5 8 7 3 5 7 8 8 7 5 4 4 5 5 4 3 3 2 2 2 2 1 2 2 3 3 3 4 4 5 5 4 3 2 2 2 2 2 2 1 1 1 1
4 5 5 4 3 2 2 7 5 3 1 2 4 5 6 8 8 7 6 5 4 4 4 4 3 3 2 2 1 2 2 3 3 4 4 5 5 5 3 3 2 2 2 2 2 2 2 1 1
5 6 5 3 0 3 1 4 7 4 3 1 3 5 6 6 7 7 7 6 6 6 4 4 3 3 2 1 1 1 2 3 3 3 4 6 5 5 4 3 2 2 2 2 3 2 2 2 1
6 1 2 1 2 2 1 2 8 3 3 5 5 5 6 6 7 8 8 7 6 5 4 3 2 3 2 1 1 1 2 3 3 4 5 5 5 5 4 3 2 2 2 3 3 2 2 2 2
4 6 6 5 4 2 2 3 6 4 6 5 4 6 6 6 6 6 5 4 4 3 3 2 2 3 3 2 2 2 3 4 5 5 5 5 4 4 5 4 3 2 2 3 3 2 2 2 2
5 5 4 4 3 5 3 3 8 6 7 6 7 8 7 7 6 6 6 6 6 5 5 3 3 4 3 3 3 3 3 3 4 5 5 5 4 4 6 4 3 3 3 3 2 2 2 2 2
5 8 6 4 4 5 3 4 7 6 4 3 4 5 5 7 7 8 8 7 6 6 5 4 4 4 3 3 4 3 3 2 3 4 4 4 4 5 5 5 4 4 3 3 2 2 2 2 2
6 3 5 6 3 1 5 7 8 1 2 1 2 3 6 7 7 8 7 7 6 6 6 5 5 4 4 3 3 3 3 3 3 4 3 4 4 5 5 5 4 4 3 2 2 1 2 1 2
5 8 6 5 3 2 6 5 5 6 6 4 5 6 7 6 6 7 6 6 6 6 5 4 4 4 4 3 3 2 3 3 4 4 4 4 5 5 6 6 5 4 4 3 1 1 1 1 1
5 5 6 5 5 5 2 7 7 8 8 9 9 8 7 7 7 7 7 6 5 4 4 4 4 3 3 3 3 3 3 3 3 3 4 4 4 5 5 5 5 5 4 3 1 1 1 1 1
4 7 8 5 4 5 4 7 7 8 8 8 8 7 6 6 6 6 6 5 4 4 4 4 3 4 4 2 2 2 3 3 3 4 5 4 5 5 5 5 5 4 4 4 2 2 1 0 1
Wind_Direction
141 98 80 56 50 47 331 290 264 345 54 45 54 81 94 89 90 135 258 240 172 163 180 183 172 160 160 174 206 221 233 231 229 229 239 246 245 242 232 225 225 225 217 201 181 167 158 141 120
114 98 56 52 71 52 294 291 298 208 149 133 75 75 81 76 85 109 90 236 160 161 170 182 183 169 174 194 231 267 293 285 271 264 264 262 263 262 256 244 241 242 238 228 218 210 201 178 165
107 73 79 67 94 183 251 291 231 80 115 102 77 59 89 107 127 162 206 164 139 148 158 190 198 184 181 212 315 318 319 312 299 288 286 287 282 277 272 258 250 249 248 242 234 226 222 214 209
99 58 59 74 253 234 228 244 170 126 98 71 102 80 59 13 167 173 157 145 148 166 170 191 197 191 187 170 359 334 326 324 321 311 305 301 301 298 290 279 267 260 256 250 243 238 233 228 231
67 85 67 18 284 286 259 238 189 138 112 86 109 113 64 350 106 134 145 156 164 179 175 201 216 214 229 260 300 331 333 330 327 323 321 316 309 306 302 294 282 271 267 264 256 245 244 241 242
74 78 90 265 294 315 302 215 138 116 115 118 122 129 205 226 141 165 168 174 180 184 198 223 242 256 270 290 307 325 329 328 328 328 327 323 322 319 309 302 293 281 272 266 263 256 251 248 250
120 111 159 216 275 292 232 140 139 139 150 172 147 136 228 233 199 178 170 169 186 207 211 272 290 305 304 296 300 312 321 326 329 330 332 334 335 330 320 309 304 294 289 279 269 266 260 255 253
132 107 95 242 229 253 219 140 145 149 163 137 139 154 207 212 179 149 133 127 136 304 298 291 300 309 313 312 311 313 325 338 345 340 335 342 347 340 332 328 322 312 303 292 277 268 269 266 260
98 82 223 227 205 230 187 150 128 116 120 128 173 188 201 154 136 133 129 67 292 262 285 284 303 309 317 314 331 347 353 356 357 351 346 348 347 339 329 323 329 323 314 306 295 282 272 273 267
116 158 228 220 198 200 184 179 173 127 143 186 185 171 130 137 151 166 181 198 211 224 242 243 264 311 346 344 8 1 3 358 355 351 347 342 338 333 329 328 332 331 327 322 310 296 283 279 275
172 198 231 233 200 187 175 180 166 150 210 211 198 184 162 164 174 185 197 203 210 215 224 234 232 9 29 7 11 10 4 357 352 350 344 339 340 339 340 334 334 334 332 330 324 324 306 292 271
194 233 217 238 187 178 184 170 170 195 224 212 192 174 169 179 191 198 201 207 204 201 217 219 143 92 54 43 17 6 354 343 338 337 335 334 335 331 329 323 322 328 324 316 316 306 305 296 277
213 248 239 246 222 202 174 200 208 234 245 190 166 168 184 192 200 205 203 200 192 193 203 186 147 130 83 44 342 1 325 319 320 325 332 332 312 311 318 311 314 312 311 305 299 289 286 282 271
221 230 278 283 200 182 179 259 243 251 195 162 170 185 197 200 199 196 192 192 191 194 189 174 167 177 113 15 315 311 315 318 324 324 328 338 311 290 301 306 305 299 296 288 276 270 266 260 257
125 15 338 290 181 203 137 278 239 239 158 176 188 196 203 209 201 198 193 185 183 183 181 187 189 167 135 300 305 320 320 326 321 320 328 331 320 300 294 292 293 290 292 289 280 279 266 262 260
58 48 310 279 191 187 153 259 264 193 171 196 202 205 209 215 207 203 185 173 167 163 174 214 180 140 282 305 312 319 325 324 314 320 322 324 321 312 304 295 287 289 293 282 276 265 269 259 257
43 251 259 290 205 172 185 249 282 159 182 205 209 211 211 211 207 196 178 169 165 167 175 184 152 258 301 317 321 321 324 322 315 320 319 320 322 317 303 288 287 297 295 282 279 255 234 248 261
207 227 246 259 234 178 218 254 276 206 200 212 210 210 207 207 213 187 169 163 158 156 163 171 190 276 309 329 333 333 333 325 320 316 313 318 315 310 306 287 295 305 302 292 276 264 258 243 246
180 205 250 259 221 192 234 260 277 261 214 213 211 208 209 214 203 160 155 152 146 149 164 191 222 275 303 322 319 319 314 312 316 313 318 321 319 314 299 300 302 303 290 283 278 258 254 256 213
177 222 264 288 241 201 261 278 285 255 222 212 207 206 202 187 166 167 163 163 169 181 195 215 236 264 275 262 260 257 275 289 287 301 319 325 325 320 307 297 293 294 292 302 296 252 237 245 185
213 208 235 254 342 17 332 314 314 334 335 202 195 191 187 187 186 185 182 185 186 202 209 215 236 264 284 294 314 332 340 330 333 330 325 322 324 320 310 297 287 283 265 275 279 248 209 228 237
237 227 210 217 34 300 15 291 295 319 327 257 204 186 192 195 189 190 191 195 204 214 213 220 240 266 284 306 330 330 330 311 293 297 301 312 318 319 319 307 298 284 269 266 272 255 222 194 220
209 120 139 146 159 324 344 202 289 329 281 257 227 208 205 200 193 196 201 205 211 210 210 222 246 270 286 303 296 308 303 283 294 304 313 320 321 319 320 308 299 291 278 268 267 273 244 208 202
139 76 58 51 75 308 261 186 281 251 234 245 219 210 207 199 196 202 207 204 214 214 217 221 242 268 284 294 295 281 293 304 318 323 325 325 320 317 321 314 303 292 280 270 260 251 240 224 211
105 95 32 360 8 261 294 210 254 260 248 228 215 213 210 197 190 197 203 206 214 218 221 220 233 264 282 290 291 285 285 294 302 307 313 319 323 317 319 322 313 302 284 273 256 237 244 229 213
158 141 157 198 233 283 330 250 260 268 283 231 205 201 198 199 201 207 211 210 216 222 220 217 231 255 275 283 289 290 288 287 290 296 302 306 302 301 310 319 314 306 299 288 258 227 234 227 226
131 151 155 132 155 303 300 297 307 292 15 96 168 185 209 213 211 213 214 214 217 221 220 215 226 247 264 273 286 297 300 301 304 309 310 306 307 312 322 326 326 319 315 298 275 235 235 226 224
136 140 105 115 138 284 307 295 261 261 247 236 226 226 231 225 217 217 215 216 221 223 222 216 221 233 248 267 280 294 300 307 311 318 323 320 320 325 331 336 336 334 326 309 277 251 240 224 241
116 100 104 106 141 149 275 281 231 228 226 221 228 228 225 219 217 213 213 213 217 215 212 216 226 236 251 263 277 299 306 318 325 325 321 320 323 330 335 335 337 340 338 332 318 279 250 234 270
172 165 149 148 189 162 175 268 264 241 242 224 229 231 224 216 212 207 201 193 199 208 214 220 229 237 246 253 269 286 306 327 332 327 324 325 330 333 335 339 344 343 344 344 340 315 322 282 268
Height
1521 1521 1522 1523 1525 1532 1533 1526 1522 1521 1521 1521 1520 1520 1522 1525 1528 1532 1529 1526 1526 1527 1527 1528 1528 1528 1528 1529 1529 1529 1529 1529 1530 1530 1530 1529 1529 1529 1529 1529 1529 1529 1529 1529 1529 1529 1529 1529 1529
1521 1522 1524 1524 1530 1540 1535 1525 1523 1521 1520 1521 1521 1522 1523 1525 1525 1526 1526 1526 1527 1527 1527 1528 1528 1528 1528 1528 1528 1528 1528 1528 1528 1528 1528 1528 1528 1528 1528 1528 1528 1528 1528 1528 1528 1528 1528 1528 1528
1522 1522 1524 1526 1532 1537 1531 1523 1521 1520 1521 1521 1522 1523 1524 1525 1526 1526 1527 1527 1527 1528 1528 1528 1528 1528 1528 1528 1528 1527 1527 1527 1527 1527 1527 1527 1527 1527 1527 1526 1526 1526 1526 1526 1527 1527 1527 1527 1528
1523 1524 1526 1530 1531 1527 1525 1521 1520 1520 1521 1521 1522 1524 1525 1526 1526 1527 1527 1527 1528 1528 1528 1528 1528 1528 1528 1527 1527 1527 1526 1526 1526 1525 1525 1525 1525 1525 1525 1525 1525 1524 1525 1525 1525 1526 1526 1526 1527
1523 1524 1528 1532 1528 1523 1521 1520 1520 1520 1521 1522 1523 1524 1525 1526 1526 1527 1528 1528 1528 1529 1528 1528 1528 1528 1527 1527 1526 1526 1525 1525 1524 1524 1524 1523 1523 1522 1522 1522 1522 1523 1523 1523 1523 1524 1525 1525 1525
1523 1524 1533 1536 1529 1523 1520 1520 1520 1520 1521 1522 1523 1524 1525 1526 1527 1527 1528 1528 1528 1529 1529 1528 1528 1528 1527 1526 1526 1525 1524 1524 1523 1522 1522 1521 1521 1521 1520 1520 1520 1520 1520 1520 1521 1522 1523 1524 1524
1524 1526 1531 1530 1529 1524 1520 1520 1520 1520 1521 1522 1523 1524 1525 1526 1526 1527 1528 1528 1528 1528 1528 1528 1528 1527 1526 1526 1525 1524 1523 1523 1522 1521 1520 1519 1519 1518 1518 1518 1518 1517 1518 1518 1519 1520 1520 1522 1522
1522 1525 1529 1530 1529 1525 1519 1519 1519 1520 1521 1522 1523 1523 1524 1525 1526 1527 1527 1528 1528 1528 1528 1528 1527 1527 1526 1525 1524 1523 1522 1521 1520 1519 1519 1518 1517 1516 1516 1516 1516 1515 1516 1516 1517 1517 1518 1519 1520
1521 1528 1532 1527 1526 1522 1518 1519 1519 1520 1521 1521 1521 1522 1523 1524 1525 1526 1526 1527 1527 1527 1527 1527 1526 1526 1525 1524 1523 1522 1521 1520 1519 1518 1517 1516 1515 1515 1514 1514 1513 1513 1513 1513 1514 1515 1516 1517 1518
1520 1528 1524 1519 1518 1517 1517 1518 1518 1519 1520 1520 1520 1521 1522 1523 1524 1525 1525 1526 1526 1527 1527 1526 1526 1525 1524 1523 1521 1520 1519 1518 1517 1516 1515 1514 1513 1512 1512 1511 1511 1511 1511 1511 1511 1512 1513 1514 1515
1518 1521 1517 1515 1515 1515 1516 1517 1517 1518 1520 1518 1518 1519 1520 1522 1523 1524 1524 1525 1526 1526 1526 1526 1525 1524 1523 1522 1520 1519 1518 1516 1515 1514 1513 1512 1511 1510 1509 1509 1509 1508 1508 1508 1509 1510 1510 1511 1512
1517 1515 1514 1513 1514 1514 1515 1515 1517 1516 1515 1515 1516 1517 1519 1520 1521 1522 1523 1524 1525 1526 1525 1525 1524 1523 1522 1521 1519 1517 1516 1515 1513 1512 1511 1510 1509 1508 1507 1506 1506 1506 1505 1506 1506 1506 1507 1508 1509
1515 1513 1513 1512 1513 1513 1514 1514 1514 1513 1513 1514 1515 1517 1518 1519 1520 1521 1523 1524 1524 1525 1525 1524 1524 1523 1521 1520 1518 1516 1515 1513 1511 1510 1509 1507 1506 1505 1505 1504 1503 1503 1503 1503 1503 1504 1504 1505 1506
1512 1512 1512 1511 1512 1512 1513 1513 1514 1510 1511 1512 1513 1515 1516 1518 1519 1520 1521 1522 1523 1524 1524 1523 1523 1522 1520 1519 1517 1515 1513 1511 1509 1508 1506 1505 1504 1503 1502 1501 1501 1501 1500 1500 1500 1501 1501 1502 1503
1512 1513 1512 1511 1511 1512 1514 1515 1511 1508 1509 1510 1512 1513 1515 1516 1518 1519 1520 1521 1522 1523 1523 1523 1522 1521 1519 1517 1515 1513 1511 1510 1508 1506 1505 1503 1502 1501 1500 1499 1498 1498 1498 1498 1498 1498 1498 1499 1501
1512 1516 1520 1512 1510 1511 1516 1519 1505 1506 1507 1508 1510 1511 1513 1515 1516 1518 1519 1521 1522 1522 1522 1522 1521 1520 1518 1516 1514 1512 1510 1508 1506 1505 1503 1502 1500 1499 1498 1497 1496 1495 1495 1495 1495 1495 1496 1497 1498
1519 1524 1522 1515 1510 1510 1514 1514 1504 1504 1505 1507 1508 1510 1511 1513 1515 1516 1518 1520 1521 1521 1521 1521 1520 1519 1517 1515 1513 1511 1509 1507 1505 1503 1502 1500 1498 1497 1495 1494 1493 1493 1492 1492 1492 1493 1493 1494 1494
1524 1524 1521 1517 1510 1511 1513 1510 1503 1504 1504 1505 1506 1508 1510 1511 1513 1515 1516 1518 1520 1521 1520 1520 1519 1518 1516 1514 1512 1510 1508 1506 1504 1502 1500 1498 1496 1495 1493 1492 1491 1490 1490 1490 1490 1490 1490 1491 1492
1513 1517 1518 1513 1507 1510 1511 1509 1503 1502 1503 1503 1504 1506 1508 1510 1512 1513 1515 1517 1518 1519 1519 1519 1518 1517 1515 1513 1511 1509 1507 1505 1503 1501 1499 1497 1495 1493 1491 1490 1489 1488 1487 1487 1487 1487 1488 1488 1489
1512 1516 1516 1510 1506 1508 1510 1508 1502 1501 1500 1500 1502 1503 1506 1508 1510 1512 1514 1516 1517 1518 1518 1518 1517 1516 1514 1512 1510 1508 1506 1504 1502 1499 1497 1495 1493 1491 1489 1488 1487 1486 1485 1485 1485 1485 1485 1486 1487
1511 1515 1514 1513 1509 1508 1510 1511 1504 1500 1499 1500 1501 1502 1504 1506 1508 1510 1512 1514 1516 1516 1517 1517 1516 1515 1513 1511 1509 1507 1505 1503 1500 1498 1495 1493 1491 1489 1488 1486 1485 1484 1483 1483 1482 1483 1483 1484 1485
1513 1505 1507 1509 1516 1521 1516 1528 1509 1504 1501 1500 1500 1501 1503 1505 1508 1509 1511 1513 1514 1515 1516 1516 1515 1514 1512 1511 1508 1506 1504 1501 1499 1496 1494 1492 1490 1488 1486 1484 1483 1482 1481 1481 1480 1480 1481 1482 1483
1505 1502 1506 1509 1515 1522 1520 1526 1518 1506 1503 1500 1499 1500 1502 1504 1506 1508 1510 1512 1513 1514 1515 1515 1514 1513 1512 1510 1508 1506 1503 1501 1498 1495 1493 1491 1488 1486 1484 1483 1481 1480 1479 1478 1478 1478 1479 1479 1480
1500 1506 1511 1518 1523 1532 1522 1527 1522 1511 1502 1498 1498 1499 1501 1503 1506 1508 1509 1511 1512 1513 1514 1513 1513 1512 1511 1509 1507 1505 1503 1500 1497 1495 1492 1489 1487 1485 1483 1481 1479 1478 1477 1476 1476 1476 1476 1477 1478
1502 1516 1531 1532 1539 1534 1522 1524 1519 1501 1497 1496 1496 1497 1499 1502 1504 1506 1508 1509 1511 1512 1512 1512 1512 1511 1510 1508 1506 1504 1502 1499 1497 1494 1492 1489 1486 1483 1481 1479 1477 1476 1475 1474 1474 1473 1474 1475 1476
1504 1511 1530 1538 1541 1534 1524 1525 1510 1496 1494 1493 1494 1496 1498 1501 1503 1505 1507 1508 1509 1510 1511 1511 1511 1510 1509 1507 1505 1503 1501 1499 1497 1494 1491 1489 1486 1483 1480 1478 1476 1474 1473 1472 1472 1472 1472 1473 1474
1505 1510 1512 1527 1530 1535 1529 1518 1503 1494 1493 1493 1494 1495 1497 1499 1501 1503 1505 1507 1508 1509 1509 1510 1509 1509 1507 1506 1504 1503 1501 1498 1496 1494 1491 1488 1486 1483 1480 1477 1475 1473 1471 1470 1470 1470 1470 1471 1472
1498 1507 1519 1528 1537 1540 1532 1523 1516 1499 1495 1493 1494 1494 1495 1497 1499 1501 1503 1505 1506 1507 1508 1508 1508 1507 1506 1505 1503 1502 1500 1498 1496 1494 1491 1488 1486 1483 1479 1477 1474 1472 1470 1469 1468 1468 1468 1469 1470
1503 1508 1517 1528 1530 1541 1540 1527 1499 1494 1491 1491 1491 1491 1493 1495 1497 1499 1501 1503 1505 1506 1506 1507 1507 1506 1505 1504 1503 1501 1500 1498 1496 1493 1491 1488 1485 1482 1479 1477 1474 1472 1470 1468 1467 1467 1467 1468 1468
1493 1500 1511 1521 1527 1533 1536 1526 1489 1489 1487 1487 1488 1489 1491 1493 1495 1497 1499 1501 1503 1504 1505 1505 1505 1505 1504 1503 1502 1500 1499 1497 1495 1493 1491 1488 1485 1483 1480 1477 1474 1472 1470 1468 1467 1466 1466 1466 1466